User: anonymous   Login
Location: Deep South Regional Star Gaze
(30.9929°N, 90.9586°W)
Time: 13:52:50
(UTC-06:00)
Language:

H-2A R/B - Orbit

View from above orbital plane
View from above orbital plane
View from above satellite
View from above satellite

Ground track
Ground track

The orbit data is extracted from the following two-line orbital elements,

1 26899U 01038B   17059.40526885  .00001107  00000-0  25998-3 0  9991
2 26899  27.9221 109.4299 7132114 116.1064 330.9350  2.47500454133822
Epoch (UTC): 28 February 2017 09:43:35
Eccentricity: 0.7132114
inclination: 27.9221°
perigee height: 243 km
apogee height: 33173 km
right ascension of ascending node: 109.4299°
argument of perigee: 116.1064°
revolutions per day: 2.47500454
mean anomaly at epoch: 330.9350°
orbit number at epoch: 13382

The dashed part of the orbit path shows where the satellite is in the earth's shadow,  

DLR